This is the latest recevied weather packets stored in our database for station/object EA4URC-10. If no packets are shown the sender has not sent any weather packets the latest 10 day(s).
| Time | Temp. | Humidity | Pressure | Rain* | Wind** | Luminosity | Snow |
|---|---|---|---|---|---|---|---|
| 1788615609 | 36.11° C | 11% | 1040.4 hPa | - | - | - | - |
| 1788613808 | 36.67° C | 10% | 1040.8 hPa | - | - | - | - |
| 1788612008 | 36.67° C | 11% | 1041 hPa | - | - | - | - |
| 1788610207 | 36.11° C | 12% | 1041.2 hPa | - | - | - | - |
| 1788608406 | 36.67° C | 13% | 1041.3 hPa | - | - | - | - |
| 1788606606 | 36.67° C | 13% | 1041.4 hPa | - | - | - | - |
| 1788604805 | 35.56° C | 14% | 1041.7 hPa | - | - | - | - |
| 1788603005 | 34.44° C | 15% | 1041.6 hPa | - | - | - | - |
| 1788601205 | 33.33° C | 16% | 1041.4 hPa | - | - | - | - |
| 1788599403 | 32.22° C | 17% | 1041.4 hPa | - | - | - | - |
| 1788597608 | 31.11° C | 18% | 1041.1 hPa | - | - | - | - |
| 1788595808 | 28.89° C | 21% | 1041.1 hPa | - | - | - | - |
| 1788594007 | 27.78° C | 23% | 1041 hPa | - | - | - | - |
| 1788592207 | 26.11° C | 24% | 1040.8 hPa | - | - | - | - |
| 1788590406 | 25.56° C | 27% | 1040.6 hPa | - | - | - | - |
| 1788588606 | 23.89° C | 30% | 1040.4 hPa | - | - | - | - |
| 1788586805 | 23.89° C | 31% | 1040.3 hPa | - | - | - | - |
| 1788585008 | 22.78° C | 31% | 1040 hPa | - | - | - | - |
| 1788583204 | 22.78° C | 33% | 1040 hPa | - | - | - | - |
| 1788581404 | 23.33° C | 33% | 1040 hPa | - | - | - | - |
| 1788579719 | 23.89° C | 32% | 1040.3 hPa | - | - | - | - |
| 1788579603 | 23.89° C | 32% | 1040.3 hPa | - | - | - | - |
| 1788577802 | 23.33° C | 33% | 1040.3 hPa | - | - | - | - |
| 1788576007 | 23.33° C | 33% | 1040.3 hPa | - | - | - | - |
| 1788574207 | 23.89° C | 34% | 1040.3 hPa | - | - | - | - |
* Rain since midnight (hover to see other rain measurements)
** Current wind speed in m/s (hover to see current wind gust speed)